Burlington, WA
on Wednesday, December 19, 2012

Wednesday
Previous Day Next Day
Daily Summary
 ActualAverage (KBLI)Record (KBLI)
Temperature
Mean Temperature °F 38°F  
Max Temperature 42°F 44°F 58°F (1959)
Min Temperature 37°F 32°F 12°F (1990)
Degree Days
Heating Degree Days 26 27  
Month to date heating degree days 503  
Cooling Degree Days 0 0  
Month to date cooling degree days 0  
Year to date cooling degree days 42  
Moisture
Dew Point 37°F   
Average Humidity 90    
Maximum Humidity 100    
Minimum Humidity 75    
Precipitation
Precipitation 0.07 in 0.13 in 1.07 in (1953)
Month to date precipitation 2.73  
Year to date precipitation 34.34  
Wind
Wind Speed 16 mph   
Max Wind Speed 21 mph   
Max Gust Speed 32 mph   
Visibility 8 miles   
Events     

Key: T is trace of precipitation, MM is missing value
Source: NWS Daily Summary
Time(PST)TemperatureDew PointHumidity Pressure Visibility Wind DirectionWind SpeedGust SpeedPrecipitationEvents Conditions
12:15 AM 37.4°F 33.8°F 87% 29.92 in 9.0 miles SE 13.8 mph 23.0 mph 0.00 in   Scattered Clouds
12:35 AM 37.4°F 33.8°F 87% 29.91 in 9.0 miles SE 16.1 mph 24.2 mph 0.00 in   Mostly Cloudy
12:55 AM 37.4°F 32.0°F 81% 29.90 in 10.0 miles SE 13.8 mph 20.7 mph 0.00 in   Mostly Cloudy
1:15 AM 37.4°F 32.0°F 81% 29.90 in 9.0 miles SE 15.0 mph 25.3 mph 0.00 in   Scattered Clouds
1:35 AM 39.2°F 32.0°F 75% 29.89 in 9.0 miles SSE 13.8 mph 23.0 mph 0.00 in   Partly Cloudy
1:55 AM 39.2°F 32.0°F 75% 29.89 in 9.0 miles SE 19.6 mph 26.5 mph 0.00 in   Mostly Cloudy
2:15 AM 37.4°F 32.0°F 81% 29.87 in 9.0 miles SE 13.8 mph 26.5 mph 0.00 in   Overcast
2:35 AM 37.4°F 33.8°F 87% 29.86 in 10.0 miles SE 17.3 mph 28.8 mph 0.00 in   Mostly Cloudy
2:55 AM 37.4°F 33.8°F 87% 29.85 in 10.0 miles ESE 19.6 mph 28.8 mph 0.00 in   Scattered Clouds
3:15 AM 37.4°F 33.8°F 87% 29.84 in 10.0 miles ESE 18.4 mph 25.3 mph 0.00 in   Mostly Cloudy
3:35 AM 37.4°F 33.8°F 87% 29.83 in 10.0 miles ESE 16.1 mph 20.7 mph 0.00 in   Overcast
3:55 AM 37.4°F 32.0°F 81% 29.83 in 10.0 miles SE 12.7 mph 19.6 mph 0.00 in   Overcast
4:15 AM 37.4°F 33.8°F 87% 29.81 in 8.0 miles ESE 15.0 mph 21.9 mph 0.00 in   Overcast
4:35 AM 37.4°F 33.8°F 87% 29.81 in 10.0 miles ESE 16.1 mph 25.3 mph 0.00 in   Overcast
4:55 AM 37.4°F 33.8°F 87% 29.79 in 10.0 miles ESE 17.3 mph 24.2 mph 0.00 in   Mostly Cloudy
5:15 AM 37.4°F 33.8°F 87% 29.77 in 10.0 miles SE 13.8 mph 19.6 mph 0.00 in   Mostly Cloudy
5:35 AM 37.4°F 33.8°F 87% 29.76 in 10.0 miles ESE 18.4 mph 24.2 mph 0.00 in   Mostly Cloudy
5:55 AM 37.4°F 33.8°F 87% 29.75 in 10.0 miles ESE 16.1 mph 24.2 mph 0.00 in   Mostly Cloudy
6:15 AM 39.2°F 33.8°F 81% 29.74 in 10.0 miles ESE 15.0 mph 27.6 mph 0.00 in   Mostly Cloudy
6:35 AM 39.2°F 33.8°F 81% 29.74 in 10.0 miles SE 17.3 mph 28.8 mph 0.00 in   Mostly Cloudy
6:55 AM 39.2°F 33.8°F 81% 29.73 in 10.0 miles SE 19.6 mph 26.5 mph 0.00 in   Mostly Cloudy
7:15 AM 39.2°F 33.8°F 81% 29.72 in 9.0 miles SE 17.3 mph 26.5 mph 0.00 in   Mostly Cloudy
7:35 AM 39.2°F 35.6°F 87% 29.71 in 10.0 miles ESE 17.3 mph 21.9 mph 0.00 in   Mostly Cloudy
7:55 AM 39.2°F 35.6°F 87% 29.71 in 9.0 miles ESE 17.3 mph 24.2 mph 0.00 in   Mostly Cloudy
8:15 AM 39.2°F 35.6°F 87% 29.70 in 9.0 miles ESE 17.3 mph 23.0 mph 0.00 in   Mostly Cloudy
8:35 AM 39.2°F 37.4°F 93% 29.69 in 8.0 miles SE 15.0 mph 32.2 mph 0.00 in   Overcast
8:55 AM 39.2°F 37.4°F 93% 29.69 in 8.0 miles SE 10.4 mph - 0.00 in   Overcast
9:15 AM 39.2°F 37.4°F 93% 29.70 in 7.0 miles SSE 15.0 mph 24.2 mph 0.00 in   Mostly Cloudy
9:35 AM 39.2°F 37.4°F 93% 29.69 in 4.0 miles SSE 11.5 mph 24.2 mph 0.00 in   Overcast
9:55 AM 39.2°F 37.4°F 93% 29.68 in 5.0 miles SE 15.0 mph 19.6 mph 0.00 in   Overcast
10:15 AM 39.2°F 37.4°F 93% 29.67 in 6.0 miles SE 16.1 mph - 0.00 in   Overcast
10:35 AM 39.2°F 37.4°F 93% 29.66 in 7.0 miles SE 16.1 mph 20.7 mph 0.00 in   Mostly Cloudy
10:55 AM 41.0°F 39.2°F 93% 29.66 in 6.0 miles SE 18.4 mph 26.5 mph 0.00 in   Scattered Clouds
11:15 AM 42.8°F 39.2°F 87% 29.65 in 5.0 miles SE 20.7 mph 29.9 mph 0.00 in   Mostly Cloudy
11:55 AM 42.8°F 39.2°F 87% 29.64 in 5.0 miles SE 20.7 mph 32.2 mph 0.00 in   Mostly Cloudy
12:15 PM 42.8°F 39.2°F 87% 29.63 in 5.0 miles SE 18.4 mph 25.3 mph 0.00 in   Overcast
12:35 PM 42.8°F 41.0°F 93% 29.63 in 4.0 miles SE 18.4 mph 27.6 mph 0.00 in   Overcast
12:55 PM 42.8°F 39.2°F 87% 29.62 in 5.0 miles SE 16.1 mph 25.3 mph 0.00 in   Overcast
1:15 PM 42.8°F 39.2°F 87% 29.62 in 5.0 miles SSE 20.7 mph 28.8 mph 0.01 in   Overcast
1:35 PM 41.0°F 39.2°F 93% 29.61 in 4.0 miles SE 17.3 mph 24.2 mph 0.02 in   Overcast
1:55 PM 41.0°F 39.2°F 93% 29.61 in 3.0 miles SE 18.4 mph 26.5 mph 0.02 in   Overcast
2:15 PM 41.0°F 39.2°F 93% 29.59 in 4.0 miles SE 16.1 mph 25.3 mph 0.01 in   Overcast
2:35 PM 41.0°F 39.2°F 93% 29.60 in 5.0 miles SSE 12.7 mph 19.6 mph 0.02 in   Overcast
2:55 PM 41.0°F 41.0°F 100% 29.62 in 7.0 miles SSE 13.8 mph 18.4 mph 0.02 in   Overcast
3:15 PM 41.0°F 41.0°F 100% 29.62 in 5.0 miles SSE 13.8 mph 21.9 mph 0.00 in   Overcast
3:35 PM 41.0°F 41.0°F 100% 29.62 in 4.0 miles SSE 15.0 mph 24.2 mph 0.00 in   Overcast
3:55 PM 39.2°F 39.2°F 100% 29.63 in 4.0 miles SSE 13.8 mph 20.7 mph 0.00 in   Overcast
4:15 PM 39.2°F 39.2°F 100% 29.61 in 2.0 miles SE 11.5 mph 18.4 mph 0.01 in   Overcast
4:35 PM 39.2°F 39.2°F 100% 29.60 in 6.0 miles SE 18.4 mph 25.3 mph 0.02 in   Overcast
4:55 PM 39.2°F 39.2°F 100% 29.60 in 8.0 miles SSE 17.3 mph 23.0 mph 0.02 in   Overcast
5:15 PM 39.2°F 39.2°F 100% 29.61 in 7.0 miles SSE 16.1 mph 24.2 mph 0.00 in   Overcast
5:35 PM 39.2°F 39.2°F 100% 29.62 in 5.0 miles SSE 12.7 mph 19.6 mph 0.00 in   Overcast
5:55 PM 39.2°F 39.2°F 100% 29.60 in 5.0 miles SE 15.0 mph 23.0 mph 0.00 in   Overcast
6:15 PM 39.2°F 39.2°F 100% 29.61 in 6.0 miles SE 12.7 mph 20.7 mph 0.00 in   Overcast
6:35 PM 41.0°F 39.2°F 93% 29.61 in 7.0 miles SE 15.0 mph 19.6 mph 0.00 in   Overcast
6:55 PM 41.0°F 39.2°F 93% 29.60 in 7.0 miles SE 18.4 mph 25.3 mph 0.00 in   Overcast
7:15 PM 41.0°F 39.2°F 93% 29.60 in 10.0 miles SE 19.6 mph 26.5 mph 0.01 in   Overcast
7:35 PM 42.8°F 39.2°F 87% 29.61 in 9.0 miles SE 18.4 mph 32.2 mph 0.01 in   Overcast
7:55 PM 42.8°F 39.2°F 87% 29.61 in 8.0 miles SSE 18.4 mph 29.9 mph 0.01 in   Overcast
8:15 PM 42.8°F 39.2°F 87% 29.62 in 9.0 miles SSE 20.7 mph 28.8 mph 0.00 in   Overcast
8:35 PM 42.8°F 39.2°F 87% 29.62 in 5.0 miles SE 18.4 mph 28.8 mph 0.00 in   Overcast
8:55 PM 41.0°F 39.2°F 93% 29.62 in 5.0 miles SSE 15.0 mph 24.2 mph 0.00 in   Overcast
9:15 PM 42.8°F 39.2°F 87% 29.61 in 9.0 miles SE 17.3 mph 26.5 mph 0.00 in   Overcast
9:35 PM 42.8°F 39.2°F 87% 29.61 in 10.0 miles SE 13.8 mph 23.0 mph 0.00 in   Overcast
9:55 PM 42.8°F 39.2°F 87% 29.61 in 10.0 miles SE 11.5 mph 26.5 mph 0.00 in   Overcast
10:15 PM 42.8°F 39.2°F 87% 29.62 in 9.0 miles SE 11.5 mph 23.0 mph 0.00 in   Overcast
10:35 PM 42.8°F 39.2°F 87% 29.62 in 8.0 miles SE 13.8 mph 17.3 mph 0.00 in   Overcast
10:55 PM 42.8°F 41.0°F 93% 29.61 in 7.0 miles SE 11.5 mph - 0.00 in   Overcast
11:15 PM 42.8°F 41.0°F 93% 29.60 in 7.0 miles East 12.7 mph - 0.00 in   Overcast
11:35 PM 41.0°F 39.2°F 93% 29.59 in 9.0 miles East 11.5 mph - 0.00 in   Overcast
11:55 PM 41.0°F 39.2°F 93% 29.57 in 8.0 miles ESE 11.5 mph - 0.00 in   Overcast
Moon Phase
Dec. 19 Dec. 20 Dec. 28 Jan. 04 Jan. 11
Sunrise:07:57 AM (PST) Moon Rise:11:37 AM (PST)12/19
Sunset:04:16 PM (PST) Moon Set:No Moon Set/

Copyright © 2014 The Weather Underground, Inc.